Theta_e
314 315 316 316 317 318 318 319 320 321 323 323 322 322 324 327 324 323 329 331 329 331 334 336 337 339 338 338 337 336 336 335 337 338 336 335 337 339 344 348 350 351 351 354 359 361 360 360 359 358 360 361 360 360 361 360 359 359 359 357 357 359 360 361 360 358 356 357 357 355 356 355 354 355 355 352 352 353 354 356 354 352 352 354 354 351 344
313 313 314 314 315 315 316 318 318 320 321 322 322 323 325 326 326 327 330 331 331 332 332 337 341 340 338 340 338 336 338 341 341 339 338 335 334 336 337 343 348 351 352 356 361 363 362 360 359 358 358 360 361 360 361 361 359 359 359 358 358 360 360 361 361 359 356 356 356 355 354 354 353 353 354 355 353 353 354 356 355 354 352 352 354 356 353
312 312 313 313 313 314 315 316 318 319 320 321 322 323 324 325 325 327 329 329 330 331 332 335 340 340 338 339 338 338 340 343 344 343 341 340 341 341 341 342 346 348 350 355 360 364 363 361 359 358 358 359 360 360 360 361 360 359 359 360 360 360 361 362 362 360 357 354 354 354 353 353 353 351 353 355 354 353 354 356 356 355 354 352 352 354 357
311 312 312 313 313 314 314 315 318 318 319 321 321 322 324 324 324 326 326 326 329 331 331 334 338 338 337 338 339 341 342 343 346 344 343 343 342 343 344 346 348 348 349 350 357 362 363 361 360 358 358 358 359 360 360 359 359 359 360 360 361 361 362 363 362 360 357 354 354 353 352 353 351 347 349 353 355 355 355 357 358 357 355 355 353 352 355
311 311 312 313 313 313 313 314 317 319 319 320 320 322 323 324 324 325 325 326 329 329 331 336 338 337 338 342 342 342 342 342 342 342 343 344 343 342 345 347 349 350 350 350 353 358 361 361 359 357 357 358 359 358 358 359 359 359 360 360 361 361 363 363 363 359 355 353 353 352 350 349 347 344 345 349 354 356 358 359 359 356 353 354 355 354 354
311 311 312 313 314 314 315 315 317 319 320 320 320 321 322 323 324 325 326 327 329 331 335 338 338 339 340 342 342 340 340 339 338 339 342 343 344 345 346 346 349 353 358 359 357 356 358 359 359 358 356 357 359 358 358 358 359 359 359 360 362 362 363 364 364 360 356 354 351 350 349 348 347 344 343 344 350 356 359 359 357 352 349 352 354 353 353
311 311 312 313 313 314 315 316 317 318 319 320 321 321 322 323 323 324 325 327 329 334 338 337 338 339 339 339 340 339 339 339 340 342 344 345 348 350 349 349 353 358 361 362 361 357 355 354 356 358 358 357 358 358 357 358 359 359 359 360 362 362 363 364 364 361 359 356 352 351 350 348 346 344 342 342 346 353 358 358 354 348 346 349 353 351 349
311 311 312 312 313 314 315 316 317 319 320 320 320 321 322 321 323 327 329 329 331 334 337 336 336 338 338 338 338 337 338 341 343 344 347 348 350 351 352 353 356 359 360 361 362 362 359 356 353 354 357 356 357 357 357 357 359 359 359 360 362 363 363 365 365 363 360 357 355 352 349 347 345 343 343 342 343 349 355 358 356 351 346 347 351 351 347
311 310 311 312 313 313 313 317 321 324 325 325 326 327 327 324 325 330 332 333 332 332 334 334 335 337 337 336 336 337 339 338 339 340 342 344 346 349 351 352 355 358 360 360 361 362 362 359 354 352 354 355 355 357 357 357 358 359 360 359 362 363 364 365 366 364 360 358 356 353 350 347 345 344 342 343 343 345 350 355 357 354 349 347 348 350 349
311 310 310 312 313 313 316 322 325 325 326 326 327 330 332 331 330 331 331 331 331 330 332 332 333 336 337 335 337 339 336 334 336 337 339 342 345 347 350 352 355 357 358 359 361 361 360 357 354 353 354 355 354 357 357 357 358 358 359 360 362 363 364 365 366 363 360 358 355 353 350 347 345 344 343 343 344 344 346 349 353 355 353 351 350 350 350
311 310 310 311 312 315 322 325 323 322 325 325 326 331 333 331 330 329 329 329 329 329 329 329 332 337 338 335 336 335 331 332 333 334 337 341 344 347 350 352 354 356 357 360 361 361 358 353 350 350 353 354 354 356 356 357 358 359 359 360 362 363 363 365 366 363 360 358 355 352 350 347 346 345 345 343 344 344 344 345 349 355 357 357 355 354 352
312 311 311 311 311 317 324 324 321 322 323 323 326 331 332 328 327 327 327 327 327 327 326 329 332 336 337 336 334 330 329 330 332 334 336 339 344 348 351 352 354 356 358 360 360 358 355 352 348 349 353 355 355 356 357 357 358 359 359 360 362 364 364 365 365 362 359 358 355 353 351 348 347 347 346 345 345 344 344 346 350 355 359 360 359 357 355
312 311 312 311 311 317 322 321 321 322 321 323 328 329 326 324 324 324 324 324 324 323 324 327 330 331 331 330 328 327 328 328 331 335 337 339 345 350 352 353 355 356 357 359 359 357 354 351 348 349 354 355 355 356 357 358 358 358 359 360 363 364 364 365 364 361 358 357 355 353 351 350 349 349 347 346 345 344 345 350 354 356 358 360 361 360 358
312 312 312 312 312 317 320 320 320 321 321 324 326 323 320 321 323 322 322 322 321 320 321 323 324 325 325 324 324 325 325 326 329 334 338 343 348 352 353 355 355 356 357 359 358 357 354 351 349 351 354 354 356 357 357 358 358 359 359 361 363 364 363 364 365 362 359 357 355 355 354 352 350 350 347 346 347 346 348 353 355 356 357 359 361 361 361
312 312 312 312 313 316 318 319 319 321 321 322 320 319 319 321 321 321 321 321 320 319 321 321 321 322 322 321 321 322 323 325 327 333 339 343 348 352 353 355 355 356 357 358 359 357 354 351 350 353 354 354 355 357 357 358 358 359 360 362 364 364 362 363 364 362 358 354 354 356 358 354 350 349 348 347 349 348 348 352 357 359 359 359 362 362 363
313 313 313 314 315 316 317 318 319 320 320 318 318 318 319 319 319 319 320 320 319 319 320 320 321 321 320 319 320 321 322 324 327 333 339 342 346 351 353 354 355 356 357 358 360 356 353 353 353 353 353 354 356 357 357 358 358 359 361 362 364 364 363 363 363 361 357 354 353 358 360 356 350 350 348 348 350 349 348 352 358 363 362 361 361 363 363
314 314 314 316 317 316 316 316 318 319 318 317 317 318 318 318 318 318 318 318 318 318 319 320 321 320 319 318 319 320 320 322 325 330 335 340 344 349 352 354 355 356 357 359 360 357 353 354 354 353 354 356 356 357 358 359 359 360 362 363 364 364 364 363 362 359 357 354 353 358 362 358 352 350 349 350 351 352 352 352 356 362 365 362 362 363 363
314 315 315 316 316 316 316 316 317 318 318 318 317 317 318 318 317 316 317 317 318 318 319 320 320 320 318 318 319 319 319 321 323 327 331 339 345 348 352 354 354 357 359 360 362 362 357 353 354 355 356 358 358 359 360 361 360 362 364 364 364 365 364 365 363 359 356 356 356 360 364 363 358 353 352 353 355 355 355 355 355 361 364 364 362 362 363
314 314 315 317 316 316 316 316 317 318 318 318 317 317 317 317 317 316 316 317 317 318 319 320 319 319 319 318 318 317 318 319 322 324 329 337 344 348 350 352 353 356 359 361 363 366 363 359 358 356 356 360 361 362 363 362 361 363 367 366 365 366 367 366 365 361 359 360 361 363 364 365 364 361 358 359 359 357 357 358 359 361 364 364 363 363 362
313 314 315 315 314 314 315 316 316 317 317 316 316 317 316 316 317 317 316 316 317 318 319 319 319 319 319 318 316 316 317 319 321 323 328 337 344 346 349 351 353 356 358 359 362 364 365 366 365 361 359 362 364 364 364 362 361 366 369 368 368 369 368 367 366 364 360 361 362 364 364 364 366 365 363 361 361 360 357 359 362 363 364 363 363 363 364
313 313 313 313 313 314 316 316 315 315 315 315 316 316 316 317 317 317 316 316 317 318 319 319 319 319 319 317 316 316 318 319 320 323 328 336 342 345 346 349 351 353 355 357 359 361 363 365 365 364 364 364 364 364 364 363 364 368 370 369 368 368 367 367 366 362 359 359 361 364 365 364 364 366 365 363 364 365 362 362 362 364 364 364 363 364 365
312 313 312 311 312 313 314 314 314 314 314 315 316 316 317 317 317 317 317 317 317 318 319 319 319 319 318 317 315 316 318 319 320 322 327 333 339 343 345 347 349 351 353 354 356 357 359 361 363 365 366 366 366 365 364 363 365 367 368 368 368 368 368 367 364 361 360 362 362 364 365 364 364 365 366 365 365 366 366 363 361 361 363 364 363 363 364
311 311 310 310 311 312 313 313 313 313 314 315 316 317 317 317 317 318 318 318 318 318 319 319 319 318 317 316 316 316 318 320 321 323 326 330 335 340 343 344 347 349 351 353 355 355 355 356 358 361 363 365 366 367 366 365 366 367 368 368 368 368 368 366 366 365 365 365 364 364 366 366 364 363 364 365 364 365 366 365 362 360 360 361 363 363 363
309 309 309 310 310 311 312 312 312 312 313 315 315 316 317 318 318 318 318 318 318 318 318 319 319 317 317 316 316 315 317 320 321 322 325 328 331 337 341 343 344 347 349 351 353 354 354 355 356 357 359 361 362 364 366 366 366 367 368 367 367 367 367 366 366 366 367 367 367 366 366 368 367 363 361 361 363 364 365 366 365 363 361 361 362 363 364
308 308 308 309 310 311 311 311 312 312 313 314 315 316 317 318 318 319 319 318 318 318 318 319 318 317 317 317 317 316 317 321 322 322 324 326 329 332 337 340 343 345 347 349 351 353 354 355 355 356 357 358 360 361 362 363 365 367 367 367 366 366 366 367 367 367 367 367 368 366 367 368 369 366 363 360 361 362 364 365 366 367 365 364 363 363 364
307 306 307 308 310 310 310 311 311 312 312 313 314 315 316 317 318 319 319 318 317 317 317 317 317 317 318 318 317 317 317 320 323 323 324 326 327 329 334 339 341 342 345 347 349 350 352 353 353 354 355 356 357 359 360 362 364 366 367 366 366 365 366 367 368 367 368 369 368 367 368 368 368 369 368 366 364 363 363 364 364 365 365 365 365 364 363
307 306 307 308 309 309 309 310 310 311 311 313 313 314 316 317 318 318 318 318 317 317 317 317 317 318 318 317 317 318 318 319 321 323 325 327 327 328 331 335 338 340 343 344 346 347 348 350 351 352 353 354 356 357 359 361 363 365 366 365 365 364 366 366 366 366 367 368 368 368 369 368 368 369 369 369 367 366 364 364 363 364 364 363 363 364 364
307 307 307 307 308 308 309 309 310 310 311 312 312 314 315 317 318 318 317 318 318 318 318 318 317 316 315 315 316 318 319 319 319 321 324 327 326 326 329 332 334 337 340 342 343 344 344 345 347 349 351 353 355 357 359 361 362 364 365 365 365 365 365 366 366 366 366 367 367 367 368 369 368 368 367 366 366 366 365 363 362 363 363 362 362 362 362
307 307 307 307 307 308 308 309 309 309 310 311 312 313 314 316 318 318 318 318 318 318 318 318 316 315 314 314 315 316 317 318 317 318 322 325 325 325 328 330 331 333 337 339 339 340 341 343 344 346 347 350 352 355 356 359 360 362 362 363 363 363 364 366 367 365 366 367 367 368 368 367 366 365 365 364 364 363 362 361 360 360 359 359 359 360 360
308 308 307 307 308 308 308 308 308 309 309 310 311 312 313 314 317 318 319 319 319 319 318 318 318 317 315 314 314 316 317 318 318 318 321 324 323 323 326 329 329 330 332 334 335 337 339 340 341 342 344 346 350 352 352 354 356 358 359 360 361 361 363 365 365 364 365 366 366 366 366 364 363 363 363 362 362 361 361 360 359 358 356 356 356 357 358
308 308 307 308 308 308 308 308 308 308 308 309 310 311 311 312 314 316 318 319 320 319 319 318 319 319 317 315 315 317 318 319 319 318 319 321 321 321 324 327 329 328 328 329 331 334 336 337 338 340 342 344 345 348 349 350 351 352 354 357 359 360 361 362 362 362 363 362 362 362 362 361 361 361 361 361 360 360 359 359 357 356 356 355 356 357 357
309 308 308 308 308 308 308 308 308 308 308 308 309 310 310 311 312 314 315 317 319 320 319 318 319 320 319 316 315 317 319 320 320 320 318 318 319 321 322 324 327 329 327 326 327 330 333 335 336 337 339 341 343 345 346 347 348 348 349 350 353 355 357 358 359 359 359 359 360 359 359 358 358 359 360 360 359 358 357 356 355 355 355 355 356 356 356
309 309 308 308 308 308 308 307 307 307 307 307 308 308 309 310 310 312 314 317 319 320 319 319 319 319 318 316 314 316 319 322 323 322 319 318 320 322 321 321 324 326 326 325 325 326 328 331 333 335 336 338 341 344 345 345 346 345 345 346 347 349 352 354 355 356 358 359 359 359 359 359 358 358 358 358 358 356 356 355 355 355 356 356 357 356 355
309 309 308 308 308 308 308 307 307 307 307 307 307 308 308 309 309 311 313 317 319 319 319 318 318 318 318 317 316 317 320 323 325 323 321 321 323 324 324 322 321 323 324 324 324 324 325 327 330 333 334 336 339 342 343 343 343 343 343 342 343 344 346 349 352 353 354 356 357 358 358 358 358 358 357 357 357 357 357 357 357 356 356 356 355 352 350
308 308 308 308 308 307 307 307 307 307 307 307 307 307 308 308 309 310 313 316 318 319 318 317 317 317 318 319 320 321 322 323 323 322 321 323 325 326 325 323 321 322 324 325 324 323 323 324 326 328 330 332 334 338 340 341 342 342 340 340 340 341 343 345 348 350 350 351 353 355 355 353 352 352 352 353 353 354 354 354 352 351 352 351 349 347 345
308 308 308 308 308 307 307 307 307 307 307 307 307 307 307 308 308 309 311 314 317 318 318 317 318 318 319 321 322 323 323 323 322 321 322 323 324 324 325 324 322 322 324 325 324 323 323 322 323 324 325 326 329 333 337 339 340 340 339 339 340 340 341 343 345 346 346 347 348 349 348 346 344 344 345 347 346 346 346 345 344 343 343 343 341 341 340
308 308 308 308 307 307 307 307 306 307 307 306 306 306 307 307 307 308 310 312 315 317 318 319 319 320 320 321 321 321 321 322 322 321 322 322 322 323 323 323 323 323 324 324 324 324 323 322 322 323 325 326 328 331 334 336 338 338 338 337 338 340 341 342 343 344 344 343 343 343 341 339 337 336 338 340 339 338 337 337 337 336 336 335 334 334 334
307 308 308 308 307 307 307 306 306 306 306 306 306 306 306 306 307 307 309 310 312 314 317 318 319 319 319 319 319 319 319 320 320 320 320 320 321 321 321 321 321 322 322 322 323 324 325 325 324 322 322 325 327 329 331 332 334 336 337 336 337 338 340 340 341 342 340 338 339 339 337 335 332 331 332 333 334 333 332 331 331 330 329 328 328 328 328
307 307 307 307 307 307 307 306 306 306 306 306 306 306 306 306 306 307 307 308 310 312 314 316 316 316 317 317 317 317 317 318 318 319 319 318 319 319 319 318 318 318 319 320 321 323 325 327 327 325 322 322 324 325 326 327 329 332 335 336 337 338 339 339 340 341 339 336 336 337 336 334 331 329 329 329 329 329 328 328 328 327 326 325 324 324 324
307 307 307 307 307 307 307 306 306 306 306 306 306 306 306 306 306 306 306 307 308 310 311 313 314 314 315 315 315 315 316 316 316 317 317 317 317 317 316 316 316 316 316 318 319 321 323 325 327 327 324 323 322 323 324 326 328 330 332 334 336 337 337 337 338 339 339 336 334 333 333 333 331 328 326 325 325 325 325 325 325 324 324 323 323 322 322
307 307 307 307 307 307 307 306 306 306 306 306 306 306 306 305 305 306 306 306 307 308 309 310 311 312 312 313 314 314 314 314 314 314 315 315 315 315 315 314 314 314 314 316 317 319 321 323 326 327 327 326 324 323 323 324 326 328 331 333 334 334 335 336 337 337 338 337 334 331 330 331 331 329 326 324 323 323 324 324 324 323 322 321 320 320 320
307 306 306 307 307 307 307 306 306 306 306 306 305 305 305 305 305 305 305 306 306 307 308 308 309 310 310 311 312 313 313 313 313 313 313 313 313 313 313 313 312 312 313 314 315 317 319 321 324 326 327 328 328 326 325 325 326 328 330 332 332 331 332 334 336 336 336 337 336 334 331 329 329 328 327 325 323 322 322 323 324 323 322 321 320 320 320
306 306 306 306 306 307 307 306 306 306 306 306 305 305 305 305 305 305 305 305 306 306 307 307 308 308 309 309 310 311 311 311 312 312 312 311 311 311 312 311 311 311 311 312 313 314 315 318 320 322 324 326 327 328 329 328 329 329 329 329 328 328 329 332 334 335 335 334 334 332 331 329 328 327 326 325 324 322 322 323 324 323 323 323 322 322 322
305 305 304 305 306 307 306 306 306 306 306 306 306 305 305 305 305 305 305 305 305 305 306 306 306 307 308 308 309 309 309 310 310 311 311 311 310 310 310 310 310 309 310 310 311 312 313 314 315 317 318 320 323 325 327 328 328 328 327 326 325 325 327 329 331 331 331 330 329 328 327 326 326 326 325 324 323 322 322 323 323 323 323 323 323 323 324
304 304 304 305 306 306 306 306 306 306 306 306 306 305 305 305 305 305 305 305 304 305 305 305 306 306 307 308 308 308 308 308 309 309 309 309 309 309 309 309 309 308 308 308 309 310 311 312 313 314 315 316 319 321 322 323 323 323 323 323 323 324 325 325 325 324 324 324 324 324 323 323 322 323 323 323 323 323 322 322 323 323 323 323 323 324 324
304 304 303 304 305 306 306 306 306 306 306 306 306 305 305 305 305 305 305 304 304 304 305 305 305 306 306 307 308 308 308 307 307 308 308 308 308 308 308 308 308 308 307 307 307 307 308 310 311 312 313 315 317 317 316 316 316 316 317 318 319 320 320 320 320 318 318 319 319 320 320 320 318 318 319 320 320 320 321 321 320 319 318 318 318 318 318
304 303 303 304 305 306 306 306 306 306 306 306 306 305 305 305 305 305 305 305 304 304 304 305 305 306 306 306 307 307 307 307 307 307 307 307 307 307 306 306 306 306 307 307 306 306 307 308 310 311 312 313 314 314 313 312 311 311 312 312 313 314 314 315 315 314 314 314 315 315 316 315 314 313 313 314 315 315 316 317 317 315 313 312 311 311 311
304 303 304 305 305 306 306 306 306 306 305 305 305 305 305 305 305 305 305 305 304 304 304 304 305 305 305 306 306 306 306 307 307 307 306 306 306 306 305 305 304 304 304 304 304 303 304 305 306 307 308 309 309 309 310 310 309 309 309 309 310 310 310 311 311 311 311 312 312 312 312 311 310 309 309 310 310 311 311 311 311 310 310 309 307 306 306
303 303 303 304 305 305 305 305 305 305 305 305 305 305 305 305 305 305 305 305 304 304 304 304 304 304 305 305 305 305 306 306 306 306 306 305 305 304 304 303 302 302 302 302 302 302 302 302 303 304 304 304 303 303 304 304 304 304 305 305 306 306 307 307 308 309 310 310 311 311 310 310 310 309 308 308 308 309 309 309 308 308 307 307 305 303 303
303 303 303 303 304 305 305 305 305 305 306 306 305 305 304 304 304 304 304 304 304 304 304 304 304 304 304 304 304 305 305 305 305 305 305 304 303 303 302 302 301 301 301 301 301 301 301 301 302 302 302 302 301 301 301 301 301 301 301 301 301 302 302 303 303 304 304 305 305 305 305 306 306 306 306 305 305 305 305 304 304 304 304 303 302 300 299
303 303 303 303 303 304 304 305 305 306 306 306 305 305 305 304 304 304 304 304 304 304 304 304 304 304 304 304 304 304 304 304 304 304 304 303 302 302 302 302 302 302 302 302 301 301 301 301 301 301 301 301 301 300 300 300 300 300 300 300 299 299 299 299 300 300 300 300 300 300 300 300 300 300 300 300 300 300 299 299 299 298 299 298 298 297 297
303 303 303 303 303 304 303 304 305 305 305 305 305 305 304 304 303 304 304 304 304 304 304 304 304 304 303 303 303 303 303 304 304 303 303 303 302 302 302 301 301 301 301 301 301 301 301 301 301 301 301 301 300 300 300 300 300 299 299 299 298 298 297 297 297 297 297 297 297 297 297 297 297 297 298 297 297 297 297 296 296 297 296 296 296 296 296
Wind_Speed
18 19 20 19 16 15 15 16 18 17 17 19 20 20 18 16 13 12 12 14 15 15 10 5 4 3 1 5 5 2 3 5 8 7 2 6 8 10 12 14 17 22 26 28 29 32 33 32 32 32 32 33 33 33 35 36 35 36 38 39 39 39 38 39 41 42 41 40 39 39 37 37 36 34 32 31 31 30 29 28 28 28 28 27 27 29 31
16 17 18 18 17 17 17 17 19 19 17 17 16 18 20 20 20 18 16 17 17 15 11 1 10 9 5 7 5 1 4 3 5 5 1 4 6 7 11 13 14 17 21 25 27 30 31 31 32 32 32 33 33 33 33 34 35 35 37 39 40 39 39 40 41 41 41 40 39 40 39 39 39 37 33 32 31 31 30 29 28 29 29 28 27 27 28
13 15 16 17 17 18 19 19 20 20 19 17 15 15 17 18 21 21 20 20 15 12 14 6 8 11 10 8 8 3 3 2 2 5 6 5 4 5 3 2 5 8 14 19 22 26 29 30 31 31 32 32 33 33 33 34 35 35 37 39 40 41 40 40 40 40 41 42 41 41 41 41 41 40 37 33 32 33 32 30 30 30 29 30 29 27 27
10 12 14 16 17 19 21 21 21 20 19 18 16 15 15 16 19 21 21 18 12 10 15 11 8 12 12 9 9 6 5 6 8 10 11 9 7 8 8 8 7 6 7 13 18 23 26 28 30 31 31 31 32 33 33 34 35 35 36 38 40 41 39 38 40 42 43 43 43 43 43 43 43 43 41 37 34 34 33 32 31 31 30 31 30 28 27
10 11 14 14 14 16 17 17 19 20 19 19 19 18 19 18 17 17 16 13 13 14 13 9 9 12 11 8 8 9 11 12 12 13 14 11 9 9 10 11 12 11 8 9 13 19 23 26 28 30 31 32 32 34 34 34 35 35 36 37 38 39 38 38 41 44 44 45 46 46 45 46 46 45 43 41 38 36 34 33 33 34 33 32 31 31 29
10 12 13 12 12 12 11 11 15 19 20 22 22 21 21 19 16 16 15 13 14 13 9 7 8 11 14 13 12 11 13 15 16 16 16 13 10 11 12 13 13 11 9 10 11 14 19 23 26 28 31 32 32 32 33 33 34 35 36 36 37 38 38 38 41 44 45 45 46 47 47 47 47 46 45 44 42 38 35 35 36 37 36 34 33 34 33
9 10 10 12 13 11 9 10 14 18 20 22 23 23 23 22 21 20 19 17 13 7 7 8 9 13 18 19 17 16 15 14 16 17 16 13 10 10 12 14 14 13 12 13 14 14 15 20 25 27 29 31 31 31 31 33 34 36 36 35 35 37 38 37 40 43 45 45 46 47 47 47 47 47 46 46 45 40 36 37 39 40 38 36 35 36 37
8 8 9 11 9 9 12 15 15 15 17 17 19 21 23 23 20 15 13 15 14 8 8 10 10 13 18 20 19 17 13 12 13 14 15 14 13 13 14 16 16 16 15 15 16 16 17 19 23 26 29 30 31 31 32 33 34 35 36 35 35 37 38 38 40 43 45 45 46 46 47 47 47 47 46 46 46 43 38 35 37 39 39 38 37 37 38
9 9 10 9 9 11 13 11 6 6 8 9 9 9 14 17 15 9 6 8 8 6 9 12 13 14 15 16 15 11 13 16 16 16 16 16 17 17 18 19 19 18 18 18 18 18 19 20 22 26 29 30 31 31 32 33 34 34 36 37 36 37 39 38 39 43 45 45 46 46 46 46 46 46 46 45 45 45 42 38 36 37 39 39 39 38 38
8 9 10 8 9 11 7 0 4 6 8 9 7 4 6 9 7 5 3 3 3 6 9 13 15 13 10 10 7 9 18 20 20 20 19 18 19 20 20 21 22 21 20 20 19 19 19 20 22 25 29 31 32 32 33 33 35 35 37 38 38 39 40 40 40 43 45 45 46 46 46 46 45 45 45 45 45 45 44 42 39 37 37 38 38 38 38
9 10 9 8 9 7 0 5 7 8 10 11 9 7 4 4 5 4 3 2 4 6 8 12 12 10 9 9 2 17 25 25 24 24 23 22 21 20 20 21 23 23 22 22 22 21 19 20 23 25 28 31 33 34 34 34 35 36 38 40 41 42 43 41 40 43 44 44 45 45 45 45 45 45 45 44 44 44 44 44 41 36 34 34 35 36 36
10 11 9 8 8 4 2 5 7 10 11 10 6 8 4 5 9 7 5 5 6 7 8 9 8 6 6 8 12 22 27 26 25 24 24 24 23 20 19 21 23 24 24 24 23 21 20 20 23 25 29 32 34 35 36 35 36 38 39 42 42 42 41 40 40 42 43 43 44 44 44 44 43 43 43 43 43 43 43 42 40 35 32 31 31 33 34
11 12 10 9 8 2 4 6 8 10 9 5 3 5 2 7 8 5 5 6 7 8 8 7 6 7 10 16 22 25 25 25 26 23 21 22 21 18 19 22 23 23 23 22 21 21 20 20 22 25 29 32 35 37 36 36 37 39 39 41 41 39 39 39 39 41 42 41 42 42 41 42 42 42 42 42 42 43 42 39 36 34 32 30 28 29 30
9 9 9 10 7 1 7 10 8 7 6 4 2 3 7 8 7 5 6 6 7 9 9 8 9 12 15 19 22 23 24 26 26 23 21 21 17 14 16 20 21 22 22 21 20 19 19 19 22 26 29 33 36 37 37 38 38 37 37 38 39 39 40 39 38 40 41 39 39 39 38 40 41 41 41 41 41 42 40 37 34 34 34 31 27 26 27
8 9 9 10 6 3 9 10 5 4 4 2 1 5 9 10 8 6 6 6 8 9 9 9 12 14 16 19 22 23 24 25 25 23 20 19 17 14 15 18 19 19 20 20 19 18 17 19 22 25 29 34 37 38 39 39 36 34 35 37 39 39 40 39 37 38 39 38 36 35 35 38 40 40 40 39 39 40 39 36 32 31 32 31 28 25 25
7 8 6 4 3 5 10 9 5 4 5 3 3 6 8 11 11 8 7 8 9 11 11 12 13 14 16 20 22 24 25 25 25 22 17 17 17 14 14 18 18 17 18 18 17 16 17 18 21 25 29 33 37 38 39 37 33 31 34 37 38 39 38 37 37 37 37 36 34 32 33 36 38 38 38 38 37 37 37 35 31 28 28 30 28 25 25
6 7 6 6 9 11 10 10 8 8 6 5 5 6 7 10 11 11 11 11 12 13 13 13 13 14 17 21 22 23 26 27 27 24 20 18 16 14 14 16 15 15 16 14 13 14 16 17 20 23 26 31 36 37 35 34 32 31 34 37 38 37 36 35 36 36 35 34 32 30 30 33 36 35 35 35 35 34 35 34 32 28 27 28 27 26 25
8 9 9 10 13 13 12 12 12 10 8 7 6 7 9 11 11 11 13 14 15 15 14 14 14 15 18 21 22 23 26 27 28 27 23 18 14 13 13 12 12 12 11 9 8 9 11 17 19 21 23 27 32 34 31 30 30 30 32 35 36 35 34 33 33 33 32 31 30 28 27 29 31 33 33 32 33 33 33 33 32 29 27 27 26 25 24
7 6 4 8 12 13 14 14 12 9 7 6 6 9 11 12 12 12 14 15 16 16 15 14 14 15 17 20 22 25 28 29 29 29 26 18 14 13 11 8 9 9 7 2 3 2 3 11 16 19 22 23 25 27 27 27 28 28 30 33 34 32 31 31 30 30 30 29 27 27 26 26 26 28 30 30 30 32 32 31 30 28 27 26 26 25 24
7 8 8 13 17 16 13 9 8 7 8 9 11 12 14 14 13 13 14 15 15 15 14 13 14 14 15 19 22 26 29 29 29 30 27 20 14 12 9 3 5 6 6 2 0 2 3 5 10 15 18 19 21 24 26 27 27 27 28 30 30 29 28 28 27 28 28 28 26 26 26 25 24 24 26 27 27 30 31 30 28 27 27 26 26 25 24
7 8 9 14 16 12 7 6 10 12 12 13 15 15 15 15 14 14 14 14 13 14 14 13 13 14 15 19 22 25 28 30 31 31 28 21 15 12 9 4 1 2 2 1 2 1 2 5 10 12 14 16 20 23 25 27 28 27 26 26 27 26 25 25 25 26 26 27 26 25 25 25 24 24 26 26 25 25 26 27 27 28 26 25 25 24 23
5 5 9 12 11 9 9 13 16 15 15 16 16 17 16 15 14 14 14 14 12 13 13 11 12 13 15 19 21 23 27 31 32 32 28 22 17 12 9 7 6 4 2 1 0 2 3 5 7 8 11 15 19 22 24 26 27 27 25 24 24 24 23 23 23 24 24 25 26 25 24 26 28 28 27 28 27 26 26 27 28 29 28 26 26 25 24
7 10 14 14 12 12 15 17 17 16 16 16 16 16 16 14 14 13 13 13 12 12 11 10 11 12 15 18 20 23 27 29 31 30 27 23 19 14 10 9 9 8 7 5 5 2 5 6 5 5 8 12 15 18 22 24 25 24 23 22 22 21 21 21 22 24 24 24 26 26 24 24 29 31 30 29 29 29 28 28 28 29 29 28 28 26 24
11 13 16 17 16 15 16 17 17 16 15 13 14 15 14 13 13 13 13 12 11 11 11 10 11 12 13 14 17 21 25 28 31 30 26 24 21 17 13 11 11 12 11 10 10 8 6 7 6 6 8 9 9 12 16 20 22 21 20 21 20 19 19 20 21 22 22 22 25 26 24 23 25 29 31 31 31 31 31 30 28 28 28 28 27 26 25
14 15 17 18 16 14 14 16 15 13 11 13 14 14 13 13 12 11 11 11 10 9 10 10 11 11 11 11 14 18 22 27 31 31 27 25 23 19 17 14 14 16 16 13 13 13 11 11 9 8 9 9 10 11 12 15 18 19 18 18 18 18 18 19 21 22 21 20 23 24 24 23 23 25 28 31 32 33 33 31 29 28 27 27 27 27 27
18 19 19 17 13 11 13 15 13 12 13 14 14 12 13 13 11 9 9 10 10 9 9 10 11 11 11 11 11 13 18 24 29 30 27 25 24 23 21 18 14 16 19 18 18 17 15 13 12 10 9 9 10 10 11 13 14 15 16 16 16 17 19 19 20 21 20 20 21 22 22 22 23 23 23 24 26 29 31 33 32 30 29 28 28 27 28
20 20 19 15 12 14 16 15 14 15 15 14 13 13 13 12 10 8 8 9 10 9 8 10 11 11 10 8 7 9 13 20 27 29 28 25 24 23 22 18 14 16 21 22 21 20 17 17 17 16 13 11 10 9 9 11 12 12 13 16 16 18 21 20 18 18 19 19 19 20 20 21 22 22 20 19 20 22 24 28 32 33 33 32 31 29 28
21 21 20 16 15 18 18 15 14 14 13 12 12 12 11 10 9 8 8 8 9 9 8 9 10 10 9 7 4 6 11 17 23 28 29 27 25 22 21 19 16 16 21 22 22 23 22 21 21 21 18 14 11 9 7 9 12 12 13 14 13 13 17 19 16 15 17 18 17 18 19 19 21 21 19 17 18 18 18 20 26 32 35 34 33 32 31
22 21 20 18 18 18 16 13 13 14 14 13 12 10 10 10 8 6 7 8 9 9 8 8 9 10 10 7 5 8 12 15 19 25 28 28 25 23 22 21 18 18 22 23 23 24 24 23 23 22 21 18 14 12 11 9 10 12 12 13 13 13 15 16 14 14 15 16 16 17 16 15 16 17 18 19 21 23 23 22 22 24 26 26 27 29 30
21 21 21 21 20 18 16 14 14 15 16 15 14 13 11 11 9 6 4 5 7 8 8 8 8 9 9 7 6 10 12 12 15 20 24 25 25 24 24 23 22 24 28 28 25 24 24 25 26 24 21 18 17 17 17 14 10 10 12 13 13 15 16 16 14 14 15 14 14 16 15 14 15 18 20 22 25 26 25 23 20 19 19 18 19 22 24
18 18 21 22 21 20 19 17 16 17 17 18 17 17 15 13 10 9 9 6 5 6 7 7 7 8 8 7 6 8 10 10 11 14 17 21 24 24 24 24 22 23 26 27 27 27 25 26 29 28 24 18 17 19 21 18 14 12 11 11 12 13 14 13 13 14 14 13 13 14 14 14 17 20 21 22 23 23 22 21 19 17 16 14 14 15 17
16 17 21 24 25 23 22 20 19 20 20 21 20 20 18 15 12 11 11 10 7 5 7 7 7 7 6 5 4 4 5 7 9 9 10 14 20 22 22 21 19 19 21 23 24 26 27 27 28 29 26 21 17 18 21 20 19 17 13 9 9 10 10 10 10 10 10 10 12 16 17 16 17 19 19 20 20 19 18 17 15 13 13 14 14 15 15
16 18 21 24 26 26 25 23 23 23 22 22 21 20 18 16 13 13 13 11 7 3 6 7 7 7 5 2 1 2 2 4 7 7 7 9 14 18 19 19 17 16 19 20 20 21 23 25 25 25 25 22 19 19 21 21 19 19 17 14 11 9 8 8 8 8 9 10 12 16 17 16 15 16 17 17 17 16 15 15 16 16 18 18 18 18 20
15 16 18 21 22 23 24 24 24 24 22 21 21 20 20 18 15 14 14 13 8 2 3 6 6 5 4 1 2 2 3 6 8 7 7 8 10 14 16 16 14 13 14 16 17 17 19 21 21 22 23 23 22 21 21 20 18 17 17 16 14 13 12 10 8 8 10 12 12 12 13 13 14 16 17 17 17 18 18 18 19 20 20 20 20 22 22
15 16 17 18 20 21 21 22 22 22 22 22 23 22 22 20 17 15 16 16 12 6 1 2 3 3 3 2 3 4 4 6 8 8 8 8 8 11 14 14 12 11 11 12 13 15 15 16 18 18 18 20 21 20 19 19 16 14 15 16 15 15 15 13 11 10 10 10 10 9 10 11 13 15 16 17 17 18 19 19 19 20 20 21 21 23 24
16 16 17 18 19 20 21 21 21 20 20 22 24 23 22 22 19 17 18 18 14 9 5 2 3 5 5 4 6 6 6 7 7 8 8 8 7 8 11 12 11 11 10 9 10 11 11 11 13 14 14 14 15 16 16 16 16 15 14 14 15 15 15 15 14 14 12 9 8 9 10 12 12 13 14 15 15 15 15 16 17 18 19 19 20 22 25
15 16 17 17 18 19 21 22 22 21 20 21 23 24 23 22 20 18 18 18 16 12 8 7 8 7 6 6 7 8 8 8 8 7 8 8 9 9 9 10 11 11 11 11 10 10 9 7 7 8 9 9 9 10 12 13 13 14 14 13 14 15 15 15 15 14 12 10 8 10 12 13 12 12 13 14 14 13 13 14 14 15 16 16 16 18 19
15 16 16 17 18 19 19 20 22 23 22 21 22 23 23 22 21 19 19 19 17 15 13 11 10 10 9 8 8 9 8 8 8 8 8 9 10 11 10 11 12 13 13 13 13 11 9 6 4 3 4 5 6 8 10 10 10 10 11 11 12 13 14 15 14 12 10 8 8 10 12 13 13 13 14 14 14 13 13 14 14 15 14 13 11 11 11
15 16 16 17 17 18 18 19 21 23 22 21 21 22 22 22 21 20 20 20 19 17 15 13 12 12 12 11 10 10 10 9 8 8 9 9 9 10 12 14 14 13 13 13 12 11 9 6 4 2 1 3 5 6 7 8 9 9 8 9 10 11 13 13 12 9 7 6 8 10 12 14 14 14 14 14 14 14 14 14 14 14 13 12 11 11 12
15 15 16 17 17 18 18 18 19 21 22 22 21 20 21 22 22 21 21 21 20 18 16 15 15 15 15 13 12 12 11 11 11 10 10 9 10 10 12 14 15 14 14 14 13 11 9 6 4 2 1 1 3 5 5 6 7 8 7 7 8 9 9 10 9 8 6 5 6 8 10 12 13 13 13 12 13 14 15 15 14 14 13 13 13 13 13
14 15 15 15 16 17 17 17 18 20 21 22 22 19 19 20 22 23 22 22 21 20 19 17 16 15 14 13 13 12 12 13 14 15 14 13 13 13 14 15 15 15 14 14 13 11 9 7 4 2 0 1 2 3 4 4 4 4 5 6 6 6 7 7 6 6 5 4 5 6 8 9 11 11 12 12 13 14 14 14 14 13 13 13 12 12 12
14 14 15 15 15 16 16 16 17 18 19 21 22 20 18 18 20 22 23 23 22 21 21 19 17 15 14 13 13 13 13 13 14 15 17 18 17 15 14 15 15 14 13 12 11 11 10 9 7 6 4 1 1 2 2 3 3 1 3 4 5 5 5 5 5 4 3 2 3 4 5 7 8 9 10 11 12 13 13 14 14 14 13 13 12 12 13
14 14 14 14 13 14 15 16 16 16 17 19 20 20 19 18 18 19 21 23 22 22 22 21 20 19 17 16 15 16 16 15 14 14 15 17 18 17 15 14 14 15 14 12 12 12 12 12 11 10 8 6 3 1 2 2 1 1 2 4 4 3 3 3 2 2 2 2 3 4 5 5 7 8 9 9 10 11 12 12 13 13 13 14 14 14 14
13 13 13 13 12 12 13 14 15 15 16 17 18 19 19 18 17 17 18 20 22 21 21 21 21 20 18 17 17 18 18 18 17 16 16 17 19 19 16 14 15 16 16 15 14 14 14 14 13 12 10 9 7 5 4 4 4 3 4 5 5 4 3 3 2 2 2 3 5 5 5 6 7 8 8 9 10 11 11 11 12 12 13 13 13 13 13
12 13 13 12 11 10 10 12 14 14 14 15 16 17 18 18 18 16 15 17 20 20 20 20 21 20 17 16 16 17 17 17 18 18 18 20 21 20 17 15 16 17 18 18 18 17 16 15 13 12 12 12 11 11 12 12 11 10 9 9 7 7 7 7 7 7 7 7 8 8 8 8 9 9 9 10 11 11 11 11 12 13 13 14 14 14 14
12 13 13 12 11 10 9 10 11 12 13 14 15 16 17 18 18 17 15 15 17 18 18 19 20 20 18 15 14 15 16 18 19 20 20 20 20 20 19 19 19 18 18 20 21 19 17 15 14 14 14 14 14 17 20 20 20 19 18 16 15 14 13 13 14 15 16 16 15 15 14 14 15 16 15 15 15 16 16 16 17 18 20 20 20 19 19
11 12 12 12 11 10 9 8 9 11 13 15 16 16 16 17 17 17 16 16 17 17 16 17 18 20 19 18 16 16 16 17 20 21 22 21 21 21 22 23 22 21 21 22 23 21 19 17 15 16 16 17 19 21 23 24 25 25 24 23 23 22 21 20 20 21 22 23 23 23 23 23 24 24 24 23 23 23 23 23 23 24 24 24 23 23 22
10 11 11 11 11 11 10 8 9 11 12 13 14 15 15 16 16 16 16 16 17 16 15 14 15 17 19 20 19 18 17 18 20 21 22 22 23 24 25 26 27 27 28 28 29 28 28 26 25 24 26 27 28 28 28 27 28 28 28 27 27 26 26 25 24 24 24 24 24 24 25 25 26 27 27 27 27 26 26 25 25 24 22 22 21 21 21
9 10 10 10 12 13 12 11 10 10 11 12 13 14 14 14 15 16 16 16 16 16 16 15 14 14 16 19 20 19 18 19 20 20 21 22 24 25 26 29 31 32 33 34 34 33 33 32 31 31 33 35 36 35 34 33 32 32 31 31 30 29 28 27 26 25 25 25 24 24 23 23 23 23 23 23 23 23 23 22 22 20 18 17 17 17 17
8 9 9 9 11 13 13 12 11 9 9 10 12 13 13 14 15 15 16 16 15 16 16 15 14 12 13 16 18 18 18 18 19 20 21 24 25 26 27 30 32 33 34 34 33 32 32 32 32 32 33 34 35 35 35 35 34 33 33 32 31 30 29 28 27 26 25 25 24 24 23 22 20 19 19 19 18 18 17 17 17 16 14 14 14 14 14
7 8 9 9 10 11 13 13 11 9 9 10 10 11 12 14 14 14 14 15 15 15 15 14 13 13 13 14 15 15 15 17 19 21 22 23 25 25 26 26 27 27 28 28 28 28 28 28 28 29 30 31 31 32 32 32 31 31 30 30 29 29 28 27 26 26 25 24 23 23 23 22 22 21 20 20 19 18 17 16 16 15 15 14 14 14 14
5 6 7 8 9 10 11 12 12 10 10 11 11 11 12 12 13 14 14 14 14 14 15 14 13 12 12 13 14 14 14 14 16 18 19 20 21 22 23 23 23 23 23 23 24 24 24 24 24 24 25 25 26 26 27 27 28 28 27 27 27 27 26 26 26 26 26 25 24 24 23 23 22 21 20 20 20 19 17 17 16 15 15 14 14 13 13
Wind_Direction
258 264 270 271 276 279 276 282 280 277 288 278 246 229 238 245 239 234 234 231 236 250 239 162 70 359 42 47 30 55 97 105 101 91 141 190 186 179 175 181 191 195 196 198 198 196 196 198 197 197 198 197 197 196 195 193 192 191 190 191 192 193 195 197 199 203 204 203 204 205 206 206 205 203 204 206 206 207 210 212 212 212 211 213 219 223 227
265 265 268 268 271 272 270 274 275 270 277 283 262 237 234 242 246 243 241 237 232 241 245 36 20 342 336 7 347 43 68 68 87 61 352 209 193 183 174 176 185 190 194 198 197 195 197 198 198 198 198 197 197 198 196 195 194 192 190 190 191 193 195 197 199 202 203 203 204 204 205 207 206 203 202 204 205 206 209 211 211 212 211 211 214 218 221
264 261 266 268 267 268 265 262 262 262 261 258 252 243 236 240 245 241 238 239 237 249 254 268 358 321 297 321 316 308 54 42 28 8 346 341 342 342 21 130 185 195 197 200 199 197 199 200 200 200 199 198 198 198 197 196 194 192 191 190 191 193 195 196 197 200 202 203 204 205 206 207 207 206 203 202 205 207 208 210 211 211 210 211 213 215 216
260 259 260 261 262 263 261 255 250 251 251 243 235 238 241 243 246 239 234 235 238 249 253 261 316 303 282 291 308 322 357 359 345 322 314 331 337 324 335 337 317 293 233 210 204 203 204 204 204 203 201 200 198 198 198 197 195 193 192 192 192 193 193 193 196 201 204 203 205 207 207 208 210 211 207 203 204 206 206 208 210 210 210 210 211 213 215
253 252 253 257 260 257 251 246 241 239 239 239 238 239 241 244 247 239 231 232 238 245 256 281 301 288 284 299 315 328 337 335 324 303 298 312 314 302 310 313 306 304 288 249 222 213 211 209 208 206 204 202 200 199 198 196 195 194 193 193 193 193 192 192 197 204 207 206 206 208 210 211 214 215 211 206 205 205 204 206 210 214 215 213 212 212 213
253 253 257 258 254 251 249 243 238 236 235 235 237 241 242 243 243 240 239 238 237 244 271 312 310 299 306 313 313 316 317 311 304 297 293 294 295 299 302 298 296 299 296 286 264 238 223 217 215 211 207 205 203 201 199 196 195 195 194 193 193 193 192 193 197 204 207 207 208 210 211 213 215 216 215 211 209 206 205 207 213 219 220 218 217 217 216
254 258 257 249 242 247 263 259 245 241 239 237 238 241 241 242 242 240 242 243 239 256 316 324 318 311 310 311 312 309 309 312 315 314 305 293 288 293 290 288 293 298 295 287 277 264 246 230 223 216 210 207 204 201 199 197 196 195 194 193 193 192 192 192 197 203 206 207 209 210 211 213 215 217 217 215 213 209 207 211 218 224 225 223 223 225 224
247 249 241 244 254 262 260 256 252 249 248 248 248 242 237 238 240 240 246 248 246 267 319 323 321 315 310 308 304 302 320 346 349 342 333 319 308 303 297 295 298 298 294 288 278 270 261 245 230 220 213 209 204 201 199 198 196 195 194 193 193 192 192 192 197 203 206 207 209 210 212 213 215 217 218 217 215 213 210 212 218 225 228 227 226 229 231
236 243 242 246 262 262 251 248 264 285 281 276 269 255 247 240 228 221 244 255 259 292 322 327 326 322 313 298 288 305 354 3 350 339 332 320 309 303 299 298 298 297 294 291 284 275 265 253 237 222 214 209 204 201 199 197 195 194 193 193 193 193 193 193 196 203 207 208 210 211 213 215 216 217 218 218 217 216 214 213 216 222 228 230 230 231 233
235 243 247 245 250 251 241 195 27 12 349 320 297 277 274 258 224 201 239 272 329 337 334 331 326 318 295 264 264 355 359 348 339 332 322 316 311 306 301 297 297 297 296 293 289 282 270 255 239 224 214 207 202 199 198 196 195 193 192 193 193 194 195 193 196 203 208 210 212 213 215 216 217 217 218 218 218 218 218 218 218 221 225 229 231 232 233
238 240 242 238 243 248 264 42 11 359 356 338 302 247 235 308 321 324 317 329 8 2 342 327 315 295 260 237 317 2 347 335 335 330 321 317 312 303 299 297 296 297 298 295 290 284 272 253 238 224 213 206 201 199 197 195 194 193 193 193 193 196 197 195 197 205 210 212 214 215 217 217 217 218 218 219 219 219 220 221 220 220 222 225 228 231 233
238 243 242 240 243 249 44 20 349 343 349 350 302 232 201 2 336 323 330 346 7 6 339 318 302 282 270 285 326 339 334 328 329 325 321 321 314 305 303 300 296 297 298 295 289 281 268 252 237 223 212 204 200 198 196 194 194 194 194 195 194 195 196 194 198 208 212 213 216 217 219 218 217 218 218 219 219 220 221 222 221 219 219 221 225 229 232
232 238 241 248 246 224 23 338 334 341 335 323 252 233 311 353 335 341 359 353 359 353 332 322 313 300 302 307 315 323 326 327 325 321 320 320 311 303 305 302 297 297 295 292 287 275 262 249 235 220 209 202 199 198 195 194 196 195 195 195 192 192 194 194 200 209 213 215 217 218 219 219 217 217 219 219 220 222 222 221 221 220 220 220 222 226 231
230 233 240 251 245 86 9 328 328 346 313 261 228 322 326 318 323 358 3 353 358 347 330 328 319 307 307 310 314 321 326 327 326 322 322 321 310 301 306 303 296 294 292 288 283 272 257 243 228 215 207 201 199 197 195 196 197 195 193 193 190 191 196 195 198 207 212 214 216 215 217 219 218 218 219 219 220 222 222 221 221 222 223 222 221 222 226
229 234 240 248 245 25 2 336 335 4 331 295 329 328 317 316 331 348 337 336 348 340 330 328 319 313 315 319 323 326 326 328 329 325 324 326 320 314 311 303 295 292 289 285 278 266 251 236 221 210 205 201 198 197 196 197 197 192 191 191 189 192 197 196 197 206 212 214 214 210 211 217 219 218 218 218 220 223 224 222 220 220 222 222 220 220 222
228 227 230 248 280 339 351 350 351 349 345 338 316 309 317 327 335 334 319 319 329 329 327 326 321 321 324 327 329 330 328 332 334 330 328 334 331 324 311 300 294 292 288 282 273 258 245 230 215 207 204 200 197 197 198 197 195 191 191 191 190 192 196 195 198 206 211 214 212 205 206 215 218 218 218 218 218 222 225 222 216 213 218 221 220 219 222
275 268 276 309 308 306 321 336 334 320 306 291 293 297 300 308 319 328 322 314 319 325 324 321 322 325 329 332 333 331 329 333 338 337 337 339 338 331 315 298 289 290 286 275 268 258 239 220 207 203 202 197 195 197 197 195 193 191 190 191 191 193 194 193 199 206 209 211 210 203 202 212 216 216 216 217 216 218 221 222 218 211 212 217 218 217 221
309 293 288 308 313 308 311 316 316 308 292 280 289 295 294 296 301 310 312 310 314 319 319 321 323 324 328 333 334 333 332 335 341 343 341 343 345 340 322 293 279 294 293 265 266 268 227 204 199 198 197 195 195 196 193 191 190 189 189 191 192 192 190 190 195 203 205 206 205 198 196 204 211 213 213 212 213 214 217 219 218 213 210 213 216 216 219
309 293 307 339 330 317 310 306 303 300 293 291 294 290 294 299 295 293 299 304 308 312 313 318 322 323 329 335 335 336 337 337 340 343 345 350 357 350 333 294 275 307 332 287 273 325 177 186 193 196 196 193 192 191 187 186 188 187 186 190 190 187 185 186 190 197 199 196 194 192 192 195 200 205 208 208 208 212 214 213 213 212 210 211 213 215 218
295 287 310 332 322 306 302 315 333 331 311 303 297 288 287 290 288 287 289 292 300 307 310 317 322 322 331 341 339 339 342 342 341 345 350 360 7 358 346 311 263 306 356 28 139 43 67 148 171 182 190 190 187 186 183 184 188 185 183 187 187 183 181 181 184 190 194 192 189 189 191 192 193 197 203 205 207 212 215 212 208 209 210 210 211 213 214
287 288 314 334 326 303 289 336 344 332 317 307 299 293 290 286 282 283 282 284 295 302 302 314 323 319 331 345 341 340 347 348 346 348 354 6 16 4 352 12 57 293 344 20 182 160 79 119 145 160 176 186 190 187 183 183 187 186 185 187 185 182 181 183 185 191 195 194 191 190 189 190 193 196 198 200 203 208 212 212 210 209 210 211 211 211 212
292 321 336 338 325 297 293 313 320 318 314 308 300 295 293 285 280 282 280 281 291 295 297 313 321 316 333 347 343 344 353 353 350 350 356 7 18 11 2 26 66 109 134 60 19 195 167 144 144 151 159 170 180 182 182 186 190 190 188 185 183 181 182 183 186 190 192 191 190 189 188 191 196 198 197 198 200 201 207 213 215 213 212 212 213 213 213
310 323 325 321 308 294 297 307 312 312 309 305 301 299 297 288 281 280 277 281 290 292 295 309 312 314 336 350 348 350 357 358 355 356 2 8 14 17 16 28 56 92 113 94 71 117 180 177 178 181 168 164 170 175 178 183 187 187 185 180 179 180 181 182 185 186 185 186 188 188 186 191 199 201 199 199 202 203 207 215 218 218 216 215 216 217 217
315 316 320 317 307 299 301 307 309 306 305 306 304 301 299 295 287 275 268 274 284 287 292 302 303 309 333 355 355 352 358 3 0 359 5 12 14 17 24 28 44 70 90 97 91 96 132 154 165 182 178 169 171 173 175 179 181 182 180 178 176 177 178 181 185 186 185 185 188 187 185 190 201 206 205 203 205 205 208 213 218 220 221 218 216 216 218
334 330 329 321 308 302 311 314 308 302 307 313 307 299 299 302 296 280 266 265 273 279 284 289 292 299 319 346 355 354 1 8 4 358 4 13 13 16 28 36 48 64 76 86 91 96 111 126 132 147 158 165 172 171 171 177 179 180 179 175 174 176 179 181 184 185 186 187 188 189 188 189 198 209 211 210 212 212 211 213 216 218 222 223 220 217 217
347 344 340 330 315 317 330 329 320 316 320 318 310 302 302 301 296 285 267 260 265 271 273 278 286 295 305 323 348 359 3 7 6 1 3 10 11 16 28 36 47 63 71 76 82 91 102 109 112 120 133 151 168 172 169 168 168 170 173 171 171 177 182 185 187 187 186 188 189 191 192 193 198 207 210 210 215 218 217 217 218 219 221 224 225 222 220
351 353 353 344 330 334 339 336 327 323 322 319 315 312 309 303 296 284 266 257 260 262 262 271 280 286 296 314 348 9 3 4 5 2 2 8 12 15 22 27 40 66 76 74 71 74 81 86 88 89 91 107 131 147 156 157 152 150 158 165 173 182 185 186 191 192 191 192 192 192 194 196 199 204 202 198 206 220 226 224 224 224 225 225 225 225 225
354 357 360 354 344 340 338 332 328 329 329 327 324 319 316 311 296 271 256 255 256 255 256 264 271 282 299 311 342 14 8 6 3 358 359 7 12 15 22 25 32 59 75 75 68 67 70 74 78 76 71 79 105 118 118 135 144 143 145 149 159 176 185 185 186 186 188 192 193 195 200 201 199 202 204 200 204 217 223 218 217 222 227 228 228 229 229
356 357 359 359 354 348 343 340 341 344 346 343 339 337 337 333 316 276 250 247 247 250 254 256 263 280 294 296 317 354 4 12 10 2 359 4 8 14 21 24 28 47 65 68 65 64 64 64 66 65 60 62 83 100 94 98 126 140 143 143 143 151 165 174 176 178 181 184 185 188 192 194 193 195 199 201 203 209 213 209 210 220 227 229 230 231 232
359 360 359 358 356 356 358 358 356 356 357 357 355 355 354 351 346 336 306 262 242 245 251 248 252 269 277 281 314 343 355 9 16 10 2 358 1 9 17 18 25 41 53 55 51 52 59 62 59 56 53 53 67 86 89 84 91 112 128 138 143 145 150 156 163 169 172 174 180 180 176 180 190 194 195 199 203 208 212 215 218 226 231 230 229 228 227
1 3 2 360 360 2 4 4 3 4 5 4 3 1 1 3 4 360 349 328 285 256 249 245 249 263 273 278 298 329 351 360 5 10 6 353 351 2 15 18 21 31 41 44 42 43 50 58 57 53 51 50 56 69 77 79 78 84 102 126 138 143 148 152 156 162 166 170 181 184 181 188 201 203 202 204 207 209 214 218 223 229 229 225 220 215 213
4 5 4 3 3 5 5 4 4 5 6 7 7 4 0 358 359 355 343 330 312 268 243 236 236 246 262 276 279 299 352 2 354 3 13 355 343 353 12 21 19 22 32 39 41 41 43 48 51 51 49 47 53 64 70 72 74 72 73 89 112 125 143 157 164 172 178 178 178 182 187 195 202 205 207 211 213 215 217 219 217 212 203 198 198 195 192
11 10 7 5 3 4 4 3 0 1 4 7 7 5 1 358 357 356 349 341 332 272 228 225 221 227 243 278 318 292 353 21 7 7 24 8 345 347 3 16 17 19 28 34 38 41 41 41 45 49 48 47 58 75 77 72 70 69 66 66 74 87 106 130 147 161 173 176 174 179 185 189 192 198 205 211 214 213 207 201 195 190 189 190 188 182 177
18 17 11 7 6 6 6 3 358 357 0 4 6 6 6 4 1 3 5 4 9 35 211 225 218 212 221 267 44 29 12 24 26 25 29 18 356 348 354 3 10 18 26 30 34 40 43 40 39 44 49 51 58 75 83 79 72 70 69 67 65 64 69 82 102 123 140 150 158 167 176 180 184 191 196 198 199 198 195 192 192 191 189 186 181 175 169
20 19 12 9 10 11 11 7 1 357 358 3 6 8 8 7 7 13 17 17 23 46 82 252 227 172 158 111 66 54 29 22 27 27 19 11 1 353 351 354 4 17 27 32 32 33 36 37 35 37 42 46 49 60 74 78 72 66 67 72 72 64 60 64 71 80 96 119 137 154 167 172 174 180 185 186 185 185 185 185 186 185 182 180 177 171 164
17 17 13 12 12 12 13 12 8 2 359 3 6 8 9 9 11 16 21 25 34 55 79 112 141 138 132 106 76 63 51 41 38 33 23 17 11 360 354 357 6 15 24 34 38 33 31 33 34 35 37 37 38 46 60 69 69 62 58 64 71 67 60 59 62 62 65 80 113 137 151 153 151 153 161 165 165 164 166 168 169 170 169 168 166 165 163
16 16 14 14 13 12 13 14 11 7 3 3 7 10 11 11 12 17 25 33 41 48 60 86 104 103 94 83 73 64 58 54 50 45 39 31 22 13 7 4 4 9 17 24 26 28 32 31 28 34 42 43 41 44 49 56 64 64 55 49 54 63 64 60 59 61 62 69 94 122 132 129 119 113 122 136 139 134 132 135 139 142 144 143 147 155 159
15 16 15 15 15 15 16 16 14 11 7 4 6 10 12 13 14 19 27 36 43 46 51 67 80 78 69 66 63 57 54 57 58 55 49 37 26 24 27 26 18 13 14 14 11 10 16 20 16 20 30 30 32 42 46 45 49 59 59 47 42 50 60 63 63 68 79 92 112 128 129 122 112 106 112 125 132 128 124 125 127 127 126 121 120 127 131
12 14 15 16 17 18 19 17 16 16 14 10 7 8 12 15 17 20 26 34 43 50 52 55 60 61 58 55 54 49 45 46 51 53 52 49 42 36 36 38 34 24 13 11 12 9 5 8 27 61 50 348 346 6 30 35 30 32 47 54 49 48 56 64 70 79 98 121 139 146 143 138 132 125 122 125 128 125 123 125 126 127 126 122 119 123 128
11 13 15 16 18 19 20 18 17 18 19 17 13 10 12 16 18 21 26 32 40 46 50 54 59 58 52 47 47 47 44 43 47 51 53 55 56 51 43 38 33 25 16 13 15 16 11 8 18 60 134 289 319 334 356 18 22 19 26 44 59 65 68 74 83 98 120 139 146 147 148 148 143 133 123 120 123 125 126 127 129 130 132 135 136 138 142
12 13 16 19 19 20 21 21 19 20 21 21 20 17 15 17 19 22 25 31 39 45 48 51 55 56 53 50 48 47 43 42 46 50 52 51 50 49 45 35 26 21 18 14 13 18 23 23 26 40 97 248 269 295 315 331 351 13 25 37 55 72 78 80 86 100 123 148 155 149 148 154 154 146 136 129 129 132 136 140 141 141 140 140 139 139 144
11 12 15 18 19 21 23 25 24 23 23 23 22 19 17 19 22 24 26 30 39 47 50 50 50 53 56 58 58 53 47 42 41 44 49 50 47 45 43 35 27 23 24 23 22 26 31 33 39 46 45 37 206 226 263 284 297 352 54 66 65 60 61 70 80 83 89 136 180 177 167 163 161 158 154 149 142 140 143 147 149 148 148 147 144 144 148
11 13 13 14 17 21 24 26 27 27 27 27 25 22 20 21 24 27 28 30 35 40 44 46 49 50 48 50 55 57 52 47 43 44 46 47 47 47 46 40 33 33 37 41 42 44 43 43 41 38 36 42 59 112 186 194 186 137 114 112 100 66 42 51 71 89 114 154 179 187 184 175 168 163 160 156 148 143 144 147 147 147 148 149 147 145 144
11 12 11 13 18 23 25 27 29 30 30 30 30 28 27 26 25 27 30 32 33 33 33 35 40 41 40 42 49 53 52 50 49 49 49 48 46 45 45 45 45 47 52 57 58 56 55 53 49 44 45 52 63 80 112 127 125 127 134 134 130 122 112 108 110 127 147 157 163 164 161 159 164 167 164 155 146 141 140 140 140 140 142 143 142 141 141
9 9 12 16 21 24 26 29 33 34 33 33 32 32 33 32 31 30 31 33 34 34 33 31 32 35 38 44 48 50 52 53 53 51 52 52 49 45 46 51 55 58 61 64 66 67 69 70 70 68 67 68 71 79 87 94 100 106 113 118 122 120 115 113 111 113 117 123 130 133 132 130 133 139 144 143 138 132 130 131 131 132 134 135 135 135 136
10 9 13 18 23 26 27 32 35 37 38 37 36 34 34 35 35 35 34 32 31 32 33 35 34 33 35 42 50 53 54 56 57 56 57 59 58 55 56 61 64 67 70 72 73 76 81 84 86 87 87 87 88 88 89 91 94 96 98 101 105 108 109 110 111 112 113 115 117 119 120 119 115 113 115 119 121 121 122 123 121 118 117 117 118 119 122
11 10 14 21 27 26 25 30 40 43 43 42 41 38 36 36 36 36 35 33 31 29 30 34 37 36 34 38 49 56 58 59 60 60 60 62 64 63 63 63 66 69 73 76 79 82 84 86 90 94 94 93 93 94 94 94 94 94 93 94 95 97 101 105 108 110 112 114 116 118 120 119 115 111 111 112 113 114 117 120 120 118 115 112 111 111 113
12 13 16 22 23 19 18 31 45 45 42 42 43 40 37 37 37 37 36 36 35 34 32 32 36 38 38 40 45 54 62 67 68 66 63 64 66 68 71 73 74 76 78 81 83 84 85 85 88 93 95 93 92 91 92 93 93 92 93 93 94 96 97 99 101 102 104 107 109 111 112 112 111 110 110 111 112 112 113 114 114 113 111 109 107 106 106
13 15 17 20 21 23 26 34 39 38 38 43 45 41 37 37 37 37 38 39 38 38 39 38 37 39 42 44 46 51 58 65 69 72 74 74 74 76 80 82 82 81 82 83 83 83 84 84 85 87 88 89 88 88 88 88 88 88 88 89 90 91 91 92 94 95 96 97 98 99 99 99 98 98 98 100 103 105 106 107 107 107 107 107 105 102 100
16 18 18 19 23 28 31 33 34 35 39 43 41 37 37 40 40 38 39 41 42 43 44 44 41 41 45 50 53 54 56 61 67 73 80 84 86 86 87 88 87 86 85 83 80 79 79 79 79 80 82 83 83 83 84 84 84 84 85 86 86 86 86 86 86 87 87 88 90 91 92 92 92 92 91 90 89 89 91 93 94 94 93 92 89 86 84
17 22 24 23 26 28 29 31 36 41 42 38 35 34 37 42 44 43 42 43 46 48 49 49 48 47 49 54 57 58 60 64 69 73 76 80 83 84 84 85 84 82 80 77 75 72 70 69 70 72 75 77 79 80 81 82 82 83 83 83 84 85 86 86 86 85 84 84 84 85 85 86 86 86 86 85 84 84 85 85 85 84 82 80 79 79 80
22 29 30 28 28 28 27 30 35 40 41 38 36 35 36 40 44 46 45 45 48 52 55 56 56 55 53 55 60 64 66 67 71 74 74 74 75 76 76 76 75 73 71 71 70 69 67 66 65 64 66 69 73 75 78 80 82 83 83 83 84 85 85 86 87 88 89 89 89 90 91 91 89 86 84 82 82 82 83 83 83 84 86 86 86 85 86